LTAC Weather Reports


time (UTC)temp
C
wind
direction
speed
KPH
gust
KPH
rain 1hr
cm
rain 24hr
cm
rain mn
cm
humidity
%
barometer
mb
20260502114503 7 90 29.0 0.0 0.00 0.00 0.00 70 1013.0
20260502111503 7 100 29.0 0.0 0.00 0.00 0.00 65 1014.0
20260502101504 7 90 25.7 0.0 0.00 0.00 0.00 70 1014.0
20260502091504 6 90 3.2 0.0 0.00 0.00 0.00 70 1014.0
20260502071504 6 100 22.5 0.0 0.00 0.00 0.00 75 1014.0
20260502064505 5 80 22.5 0.0 0.00 0.00 0.00 80 1014.0
20260502063004 5 80 22.5 0.0 0.00 0.00 0.00 80 1014.0
20260502061503 5 90 25.7 0.0 0.00 0.00 0.00 80 1015.0
20260502060004 5 90 25.7 0.0 0.00 0.00 0.00 80 1015.0
20260502054504 5 70 22.5 0.0 0.00 0.00 0.00 80 1015.0
20260502053004 5 70 22.5 0.0 0.00 0.00 0.00 80 1015.0
20260502050004 3 50 25.7 0.0 0.00 0.00 0.00 86 1015.0
20260502044506 5 60 20.9 0.0 0.00 0.00 0.00 80 1014.0
20260502041504 5 60 24.1 0.0 0.00 0.00 0.00 80 1014.0
20260502040005 5 60 24.1 0.0 0.00 0.00 0.00 80 1014.0
20260502034504 5 70 19.3 0.0 0.00 0.00 0.00 75 1014.0
20260502031504 5 70 19.3 0.0 0.00 0.00 0.00 75 1014.0
20260502030004 5 70 19.3 0.0 0.00 0.00 0.00 75 1014.0
20260502023004 5 70 19.3 0.0 0.00 0.00 0.00 75 1014.0
20260502021504 5 40 14.5 0.0 0.00 0.00 0.00 80 1014.0
20260502013004 5 50 9.7 0.0 0.00 0.00 0.00 75 1015.0
20260502004503 5 20 8.0 0.0 0.00 0.00 0.00 75 1015.0
20260502003005 5 20 8.0 0.0 0.00 0.00 0.00 75 1015.0
20260502000004 5 40 9.7 0.0 0.00 0.00 0.00 75 1015.0
20260501234503 5 50 14.5 0.0 0.00 0.00 0.00 75 1015.0
20260501233004 5 50 14.5 0.0 0.00 0.00 0.00 75 1015.0
20260501231503 5 50 20.9 0.0 0.00 0.00 0.00 75 1015.0
20260501230005 5 50 20.9 0.0 0.00 0.00 0.00 75 1015.0
20260501224505 5 60 19.3 0.0 0.00 0.00 0.00 75 1015.0
20260501213004 5 70 19.3 0.0 0.00 0.00 0.00 75 1015.0
20260501211503 5 50 14.5 0.0 0.00 0.00 0.00 80 1015.0
20260501210004 5 50 14.5 0.0 0.00 0.00 0.00 80 1015.0
20260501204503 5 60 9.7 0.0 0.00 0.00 0.00 80 1015.0
20260501203005 5 60 9.7 0.0 0.00 0.00 0.00 80 1015.0
20260501201504 6 40 8.0 0.0 0.00 0.00 0.00 75 1015.0
20260501200005 6 40 8.0 0.0 0.00 0.00 0.00 75 1015.0
20260501191503 6 40 12.9 0.0 0.00 0.00 0.00 75 1015.0
20260501190005 6 40 12.9 0.0 0.00 0.00 0.00 75 1015.0
20260501184504 6 50 1.6 0.0 0.00 0.00 0.00 81 1015.0
20260501181504 7 10 8.0 0.0 0.00 0.00 0.00 81 1014.0
20260501180004 7 10 8.0 0.0 0.00 0.00 0.00 81 1014.0
20260501170004 7 20 12.9 0.0 0.00 0.00 0.00 70 1014.0
20260501164504 7 10 14.5 0.0 0.00 0.00 0.00 81 1014.0
20260501163004 7 10 14.5 0.0 0.00 0.00 0.00 81 1014.0
20260501154503 7 300 14.5 0.0 0.00 0.00 0.00 87 1013.0
20260501144503 7 290 12.9 0.0 0.00 0.00 0.00 87 1013.0
20260501143003 7 290 12.9 0.0 0.00 0.00 0.00 87 1013.0